GIA3605 WIEE-OEMA

Flight info

Callsign GIA3605
Flight time N/A
Altitude 32000
Route RIVM1D RIVMA DCT ODIRU M766 KAT P570 TVM UL425 ASPUX N315 SITOL DCT PUSON L883 KITUB Y511 ELONU
Aircraft B77W/H-SDE1E2E3FGHIJ2J3J4J5M1RWXY/LB1D1

Departure

Time N/A
Airport Minangkabau International Airport (WIEE)

Arrival

Time 2026-04-29 14:40
Airport Prince Mohammad Bin Abdulaziz Airport (OEMA)
Time Latitude Longitude Altitude Speed Heading
2026-04-29 09:49 8.72313 76.17981 31802 ft 508 kts 289°
2026-04-29 09:49 8.74577 76.11167 31794 ft 507 kts 289°
2026-04-29 09:50 8.76819 76.04414 31794 ft 506 kts 289°
2026-04-29 09:50 8.79079 75.97604 31795 ft 506 kts 289°
2026-04-29 09:51 8.81042 75.91689 31775 ft 506 kts 288°
2026-04-29 09:51 8.83274 75.84953 31773 ft 505 kts 288°
2026-04-29 09:52 8.85506 75.78211 31823 ft 506 kts 288°
2026-04-29 09:52 8.86640 75.74783 32060 ft 505 kts 288°
2026-04-29 09:52 8.87751 75.71426 32367 ft 502 kts 288°
2026-04-29 09:53 8.88859 75.68079 32612 ft 501 kts 288°
2026-04-29 09:53 8.89895 75.64945 32810 ft 500 kts 288°
2026-04-29 09:53 8.91064 75.61410 33031 ft 499 kts 288°
2026-04-29 09:53 8.92180 75.58032 33231 ft 499 kts 289°
2026-04-29 09:54 8.93282 75.54694 33380 ft 499 kts 289°
2026-04-29 09:54 8.94382 75.51365 33587 ft 498 kts 289°
2026-04-29 09:54 8.95495 75.47994 33767 ft 498 kts 289°
2026-04-29 09:54 8.96665 75.44454 33779 ft 498 kts 289°
2026-04-29 09:55 8.98869 75.37772 33779 ft 496 kts 289°
2026-04-29 09:55 9.01048 75.31159 33780 ft 495 kts 289°
2026-04-29 09:56 9.03241 75.24504 33779 ft 496 kts 288°
2026-04-29 09:56 9.05433 75.17845 33780 ft 496 kts 288°
2026-04-29 09:57 9.07273 75.12253 33780 ft 496 kts 288°
2026-04-29 09:57 9.09483 75.05532 33781 ft 495 kts 288°
2026-04-29 09:58 9.11645 74.98950 33780 ft 496 kts 288°
2026-04-29 09:58 9.13966 74.91882 33781 ft 495 kts 288°
2026-04-29 09:59 9.16141 74.85255 33782 ft 495 kts 288°
2026-04-29 09:59 9.18308 74.78646 33781 ft 495 kts 288°
2026-04-29 10:00 9.20528 74.71870 33783 ft 495 kts 288°
2026-04-29 10:00 9.22710 74.65206 33783 ft 495 kts 288°
2026-04-29 10:01 9.24878 74.58581 33782 ft 495 kts 288°
2026-04-29 10:01 9.26751 74.52855 33782 ft 495 kts 288°
2026-04-29 10:02 9.29294 74.45071 33784 ft 495 kts 288°
2026-04-29 10:02 9.31109 74.39518 33784 ft 495 kts 289°
2026-04-29 10:03 9.33278 74.32893 33784 ft 495 kts 288°
2026-04-29 10:03 9.35449 74.26228 33785 ft 495 kts 288°
2026-04-29 10:04 9.37621 74.19555 33786 ft 495 kts 288°
2026-04-29 10:04 9.39783 74.12909 33785 ft 495 kts 288°
2026-04-29 10:05 9.41989 74.06154 33785 ft 495 kts 289°
2026-04-29 10:05 9.44257 73.99360 33787 ft 495 kts 289°
2026-04-29 10:06 9.46500 73.92617 33786 ft 495 kts 289°
2026-04-29 10:06 9.48401 73.86886 33787 ft 495 kts 289°
2026-04-29 10:07 9.50789 73.79682 33788 ft 495 kts 289°
2026-04-29 10:07 9.53061 73.72845 33787 ft 495 kts 289°
2026-04-29 10:08 9.55259 73.66240 33788 ft 495 kts 289°
2026-04-29 10:08 9.57501 73.59479 33788 ft 495 kts 289°
2026-04-29 10:09 9.59696 73.52850 33788 ft 495 kts 289°
2026-04-29 10:09 9.61874 73.46268 33788 ft 495 kts 289°
2026-04-29 10:10 9.64078 73.39600 33788 ft 495 kts 289°
2026-04-29 10:10 9.66283 73.32926 33788 ft 495 kts 289°
2026-04-29 10:11 9.68216 73.27072 33789 ft 495 kts 289°
2026-04-29 10:11 9.70404 73.20440 33789 ft 495 kts 289°
2026-04-29 10:12 9.72625 73.13704 33790 ft 495 kts 289°
2026-04-29 10:12 9.74812 73.07065 33790 ft 495 kts 289°
2026-04-29 10:13 9.76995 73.00434 33790 ft 495 kts 289°
2026-04-29 10:13 9.79248 72.93585 33790 ft 495 kts 289°
2026-04-29 10:14 9.81415 72.86991 33790 ft 495 kts 289°
2026-04-29 10:14 9.83618 72.80285 33790 ft 495 kts 289°
2026-04-29 10:15 9.85602 72.74239 33790 ft 495 kts 289°
2026-04-29 10:15 9.87745 72.67726 33791 ft 495 kts 289°
2026-04-29 10:16 9.89921 72.61093 33792 ft 495 kts 289°
2026-04-29 10:16 9.92123 72.54360 33791 ft 495 kts 289°
2026-04-29 10:17 9.94288 72.47734 33791 ft 495 kts 288°
2026-04-29 10:17 9.96809 72.40889 33792 ft 494 kts 297°
2026-04-29 10:18 10.00422 72.34617 33792 ft 495 kts 302°
2026-04-29 10:18 10.04220 72.28778 33792 ft 495 kts 303°
2026-04-29 10:19 10.07418 72.23956 33792 ft 495 kts 303°
2026-04-29 10:19 10.11914 72.17164 33792 ft 495 kts 303°
2026-04-29 10:20 10.15780 72.11315 33792 ft 495 kts 303°
2026-04-29 10:20 10.19584 72.05579 33792 ft 495 kts 303°
2026-04-29 10:21 10.22837 72.00665 33792 ft 495 kts 303°
2026-04-29 10:21 10.26805 71.94663 33793 ft 495 kts 303°
2026-04-29 10:22 10.30642 71.88852 33793 ft 495 kts 303°
2026-04-29 10:22 10.34503 71.83003 33792 ft 495 kts 303°
2026-04-29 10:23 10.38340 71.77185 33793 ft 495 kts 303°
2026-04-29 10:23 10.42177 71.71365 33793 ft 495 kts 303°
2026-04-29 10:24 10.46089 71.65429 33793 ft 495 kts 303°
2026-04-29 10:24 10.49915 71.59619 33794 ft 495 kts 303°
2026-04-29 10:25 10.53798 71.53720 33793 ft 495 kts 303°
2026-04-29 10:25 10.57654 71.47857 33793 ft 495 kts 303°
2026-04-29 10:26 10.61490 71.42023 33794 ft 495 kts 303°
2026-04-29 10:26 10.65394 71.36084 33793 ft 495 kts 303°
2026-04-29 10:27 10.71210 71.27227 33793 ft 495 kts 303°
2026-04-29 10:28 10.74446 71.22297 33794 ft 495 kts 303°
2026-04-29 10:28 10.78272 71.16464 33793 ft 495 kts 303°
2026-04-29 10:29 10.82176 71.10510 33794 ft 495 kts 303°
2026-04-29 10:29 10.86000 71.04673 33794 ft 495 kts 303°
2026-04-29 10:30 10.89824 70.98834 33794 ft 495 kts 303°
2026-04-29 10:30 10.93648 70.92992 33795 ft 495 kts 303°
2026-04-29 10:31 10.97467 70.87154 33794 ft 495 kts 303°
2026-04-29 10:31 11.01568 70.80882 33785 ft 495 kts 303°
2026-04-29 10:32 11.05488 70.74884 33785 ft 495 kts 303°
2026-04-29 10:32 11.09305 70.69037 33794 ft 494 kts 303°
2026-04-29 10:33 11.12526 70.64105 33787 ft 494 kts 303°
2026-04-29 10:33 11.16331 70.58272 33785 ft 495 kts 303°
2026-04-29 10:34 11.20004 70.52638 33797 ft 495 kts 303°
2026-04-29 10:34 11.23972 70.46550 33810 ft 493 kts 303°
2026-04-29 10:35 11.27752 70.40745 33833 ft 490 kts 304°
2026-04-29 10:35 11.31654 70.34751 33844 ft 489 kts 304°
2026-04-29 10:36 11.35493 70.28848 33858 ft 489 kts 304°
2026-04-29 10:36 11.39252 70.23067 33862 ft 489 kts 304°
2026-04-29 10:37 11.43043 70.17235 33854 ft 489 kts 304°
2026-04-29 10:37 11.46781 70.11492 33863 ft 489 kts 304°
2026-04-29 10:38 11.50542 70.05696 33864 ft 489 kts 304°
2026-04-29 10:38 11.54296 69.99902 33865 ft 489 kts 304°
2026-04-29 10:39 11.58048 69.94110 33864 ft 489 kts 304°
2026-04-29 10:39 11.61875 69.88201 33865 ft 489 kts 304°
2026-04-29 10:40 11.65644 69.82340 33867 ft 489 kts 304°
2026-04-29 10:40 11.69419 69.76458 33867 ft 489 kts 304°
2026-04-29 10:41 11.73147 69.70645 33866 ft 489 kts 304°
2026-04-29 10:41 11.76247 69.65808 33866 ft 489 kts 304°
2026-04-29 10:42 11.80024 69.59913 33869 ft 489 kts 304°
2026-04-29 10:42 11.83761 69.54098 33869 ft 489 kts 304°
2026-04-29 10:43 11.87539 69.48209 33868 ft 489 kts 304°
2026-04-29 10:43 11.91272 69.42380 33869 ft 489 kts 304°
2026-04-29 10:44 11.94993 69.36564 33869 ft 489 kts 304°
2026-04-29 10:44 11.98724 69.30729 33871 ft 489 kts 304°
2026-04-29 10:45 12.02505 69.24825 33871 ft 489 kts 304°
2026-04-29 10:45 12.06236 69.18985 33871 ft 489 kts 304°
2026-04-29 10:46 12.09953 69.13156 33870 ft 489 kts 304°
2026-04-29 10:46 12.13672 69.07318 33873 ft 489 kts 304°
2026-04-29 10:47 12.17335 69.01571 33872 ft 489 kts 304°
2026-04-29 10:47 12.21182 68.95547 33872 ft 489 kts 304°
2026-04-29 10:48 12.24893 68.89748 33873 ft 489 kts 304°
2026-04-29 10:48 12.28641 68.83882 33873 ft 489 kts 304°
2026-04-29 10:49 12.32387 68.78014 33874 ft 489 kts 304°
2026-04-29 10:49 12.36133 68.72142 33874 ft 489 kts 304°
2026-04-29 10:50 12.39870 68.66301 33874 ft 489 kts 304°
2026-04-29 10:50 12.43594 68.60473 33875 ft 489 kts 304°
2026-04-29 10:51 12.47315 68.54638 33875 ft 489 kts 304°
2026-04-29 10:51 12.51034 68.48800 33875 ft 489 kts 304°
2026-04-29 10:52 12.54779 68.42919 33876 ft 489 kts 304°
2026-04-29 10:52 12.58475 68.37110 33876 ft 489 kts 304°
2026-04-29 10:53 12.62241 68.31187 33876 ft 489 kts 304°
2026-04-29 10:53 12.65340 68.26323 33876 ft 489 kts 304°
2026-04-29 10:54 12.69079 68.20439 33876 ft 489 kts 304°
2026-04-29 10:54 12.72960 68.14317 33878 ft 489 kts 304°
2026-04-29 10:55 12.76672 68.08457 33877 ft 489 kts 304°
2026-04-29 10:55 12.80402 68.02571 33876 ft 489 kts 304°
2026-04-29 10:56 12.84128 67.96725 33878 ft 489 kts 304°
2026-04-29 10:56 12.87963 67.90734 33878 ft 489 kts 304°
2026-04-29 10:57 12.91746 67.84812 33878 ft 489 kts 304°
2026-04-29 10:57 12.95466 67.78981 33878 ft 489 kts 304°
2026-04-29 10:58 12.99196 67.73130 33878 ft 489 kts 304°
2026-04-29 10:58 13.02929 67.67296 33879 ft 489 kts 304°
2026-04-29 10:59 13.06668 67.61444 33880 ft 489 kts 304°
2026-04-29 10:59 13.10392 67.55605 33879 ft 489 kts 304°
2026-04-29 11:00 13.13501 67.50724 33879 ft 489 kts 304°
2026-04-29 11:00 13.17895 67.43820 33880 ft 489 kts 304°
2026-04-29 11:01 13.21620 67.37963 33880 ft 489 kts 304°
2026-04-29 11:01 13.24788 67.32978 33880 ft 489 kts 304°
2026-04-29 11:02 13.28503 67.27129 33879 ft 489 kts 304°
2026-04-29 11:02 13.32221 67.21270 33880 ft 489 kts 304°
2026-04-29 11:03 13.35968 67.15363 33881 ft 490 kts 304°
2026-04-29 11:03 13.39692 67.09487 33881 ft 490 kts 304°
2026-04-29 11:04 13.43492 67.03488 33880 ft 490 kts 304°
2026-04-29 11:04 13.47196 66.97637 33892 ft 492 kts 304°
2026-04-29 11:05 13.50976 66.91662 33897 ft 492 kts 304°
2026-04-29 11:05 13.54704 66.85764 33904 ft 491 kts 304°
2026-04-29 11:06 13.58410 66.79897 33920 ft 492 kts 304°
2026-04-29 11:06 13.62293 66.73746 33935 ft 493 kts 304°
2026-04-29 11:07 13.66108 66.67698 33934 ft 493 kts 304°
2026-04-29 11:07 13.69840 66.61778 33935 ft 493 kts 304°
2026-04-29 11:08 13.73622 66.55774 33935 ft 493 kts 304°
2026-04-29 11:08 13.76774 66.50767 33935 ft 493 kts 304°
2026-04-29 11:09 13.80569 66.44734 33935 ft 493 kts 304°
2026-04-29 11:09 13.84309 66.38785 33934 ft 493 kts 304°
2026-04-29 11:10 13.88017 66.32882 33935 ft 493 kts 304°
2026-04-29 11:10 13.91771 66.26903 33935 ft 493 kts 304°
2026-04-29 11:11 13.95514 66.20936 33935 ft 493 kts 304°
2026-04-29 11:11 13.99252 66.14973 33935 ft 495 kts 304°
2026-04-29 11:12 14.02990 66.09006 33935 ft 496 kts 304°
2026-04-29 11:12 14.06837 66.02860 33934 ft 496 kts 304°
2026-04-29 11:13 14.10495 65.97012 33935 ft 495 kts 304°
2026-04-29 11:13 14.14224 65.91046 33935 ft 495 kts 304°
2026-04-29 11:14 14.18009 65.84986 33934 ft 495 kts 304°
2026-04-29 11:14 14.21746 65.78999 33935 ft 495 kts 304°
2026-04-29 11:15 14.25472 65.73025 33935 ft 495 kts 304°
2026-04-29 11:15 14.29202 65.67039 33934 ft 495 kts 304°
2026-04-29 11:16 14.33037 65.60882 33935 ft 495 kts 304°
2026-04-29 11:16 14.36753 65.54911 33935 ft 495 kts 304°
2026-04-29 11:17 14.40475 65.48925 33934 ft 495 kts 304°
2026-04-29 11:17 14.44207 65.42937 33935 ft 495 kts 304°
2026-04-29 11:18 14.47926 65.36946 33935 ft 495 kts 304°
2026-04-29 11:18 14.51642 65.30949 33934 ft 495 kts 304°
2026-04-29 11:19 14.55351 65.24959 33935 ft 495 kts 304°
2026-04-29 11:19 14.58441 65.19971 33935 ft 495 kts 304°
2026-04-29 11:20 14.62807 65.12982 33934 ft 495 kts 304°
2026-04-29 11:20 14.66557 65.07000 33935 ft 495 kts 304°
2026-04-29 11:21 14.69765 65.01871 33934 ft 495 kts 304°
2026-04-29 11:21 14.73503 64.95886 33935 ft 495 kts 304°
2026-04-29 11:22 14.77315 64.89776 33935 ft 495 kts 304°
2026-04-29 11:22 14.81124 64.83704 33934 ft 495 kts 304°
2026-04-29 11:23 14.84870 64.77716 33935 ft 495 kts 304°
2026-04-29 11:23 14.88660 64.71645 33935 ft 495 kts 304°
2026-04-29 11:24 14.92418 64.65616 33934 ft 495 kts 304°
2026-04-29 11:24 14.96201 64.59542 33935 ft 495 kts 304°
2026-04-29 11:25 14.99936 64.53540 33935 ft 495 kts 304°
2026-04-29 11:25 15.03677 64.47523 33934 ft 495 kts 304°
2026-04-29 11:26 15.09310 64.38455 33934 ft 495 kts 304°
2026-04-29 11:26 15.13088 64.32368 33935 ft 495 kts 304°
2026-04-29 11:27 15.16845 64.26308 33935 ft 495 kts 304°
2026-04-29 11:27 15.20516 64.20383 33934 ft 495 kts 304°
2026-04-29 11:28 15.24287 64.14293 33935 ft 495 kts 304°
2026-04-29 11:28 15.27380 64.09293 33934 ft 495 kts 304°
2026-04-29 11:29 15.31120 64.03244 33935 ft 495 kts 304°
2026-04-29 11:29 15.34812 63.97266 33935 ft 495 kts 304°
2026-04-29 11:30 15.38578 63.91165 33934 ft 495 kts 304°
2026-04-29 11:30 15.42294 63.85141 33935 ft 495 kts 304°
2026-04-29 11:31 15.46007 63.79116 33935 ft 495 kts 304°
2026-04-29 11:31 15.49764 63.73014 33934 ft 495 kts 304°
2026-04-29 11:32 15.53499 63.66943 33935 ft 495 kts 304°
2026-04-29 11:32 15.57191 63.60938 33935 ft 495 kts 304°
2026-04-29 11:33 15.60918 63.54871 33934 ft 495 kts 304°
2026-04-29 11:33 15.64669 63.48759 33935 ft 495 kts 304°
2026-04-29 11:34 15.68399 63.42677 33935 ft 495 kts 304°
2026-04-29 11:34 15.72104 63.36631 33934 ft 495 kts 304°
2026-04-29 11:35 15.75300 63.31412 33935 ft 495 kts 304°
2026-04-29 11:35 15.79628 63.24338 33935 ft 495 kts 304°
2026-04-29 11:36 15.83349 63.18250 33935 ft 495 kts 304°
2026-04-29 11:36 15.87063 63.12170 33935 ft 495 kts 304°
2026-04-29 11:37 15.90759 63.06114 33935 ft 495 kts 304°
2026-04-29 11:37 15.93874 63.01005 33935 ft 495 kts 304°
2026-04-29 11:38 15.97544 62.94983 33935 ft 495 kts 304°
2026-04-29 11:38 16.01282 62.88843 33934 ft 495 kts 304°
2026-04-29 11:39 16.04969 62.82781 33935 ft 495 kts 304°
2026-04-29 11:39 16.08656 62.76715 33935 ft 495 kts 304°
2026-04-29 11:40 16.12462 62.70448 33935 ft 495 kts 304°
2026-04-29 11:40 16.16146 62.64376 33935 ft 495 kts 304°
2026-04-29 11:41 16.19829 62.58302 33935 ft 495 kts 304°
2026-04-29 11:41 16.23507 62.52230 33935 ft 495 kts 304°
2026-04-29 11:42 16.27182 62.46158 33935 ft 495 kts 304°
2026-04-29 11:42 16.30958 62.39913 33935 ft 495 kts 304°
2026-04-29 11:43 16.34633 62.33831 33935 ft 495 kts 304°
2026-04-29 11:43 16.38331 62.27706 33934 ft 495 kts 304°
2026-04-29 11:44 16.42008 62.21609 33935 ft 495 kts 304°
2026-04-29 11:44 16.45655 62.15557 33935 ft 495 kts 304°
2026-04-29 11:45 16.49396 62.09345 33934 ft 495 kts 304°
2026-04-29 11:45 16.53071 62.03254 33935 ft 495 kts 304°
2026-04-29 11:46 16.56286 61.97910 33934 ft 495 kts 303°
2026-04-29 11:46 16.60043 61.91646 33935 ft 495 kts 303°
2026-04-29 11:47 16.63698 61.85545 33935 ft 495 kts 303°
2026-04-29 11:47 16.67401 61.79366 33934 ft 495 kts 303°
2026-04-29 11:48 16.71056 61.73261 33935 ft 495 kts 303°
2026-04-29 11:48 16.74689 61.67186 33935 ft 495 kts 303°
2026-04-29 11:49 16.78401 61.60970 33899 ft 497 kts 303°
2026-04-29 11:49 16.82050 61.54851 33891 ft 498 kts 303°
2026-04-29 11:50 16.85778 61.48591 33925 ft 496 kts 303°
2026-04-29 11:50 16.89446 61.42468 33825 ft 499 kts 303°
2026-04-29 11:51 16.92539 61.37295 33744 ft 504 kts 302°
2026-04-29 11:51 16.96888 61.29995 33749 ft 512 kts 302°
2026-04-29 11:52 17.00672 61.23633 33778 ft 516 kts 303°
2026-04-29 11:52 17.04480 61.17228 33786 ft 519 kts 303°
2026-04-29 11:53 17.08307 61.10784 33750 ft 522 kts 302°
2026-04-29 11:53 17.12165 61.04278 33749 ft 521 kts 302°
2026-04-29 11:54 17.15994 60.97816 33749 ft 521 kts 302°
2026-04-29 11:54 17.19201 60.92400 33749 ft 521 kts 302°
2026-04-29 11:55 17.23018 60.85947 33748 ft 521 kts 302°
2026-04-29 11:55 17.26838 60.79483 33748 ft 521 kts 302°
2026-04-29 11:56 17.30647 60.73032 33748 ft 521 kts 302°
2026-04-29 11:56 17.34335 60.66780 33747 ft 521 kts 302°
2026-04-29 11:57 17.38297 60.60056 33747 ft 521 kts 302°
2026-04-29 11:57 17.42101 60.53595 33747 ft 521 kts 302°
2026-04-29 11:58 17.45956 60.47041 33746 ft 521 kts 302°
2026-04-29 11:58 17.49757 60.40572 33745 ft 521 kts 302°
2026-04-29 11:59 17.53609 60.34010 33746 ft 521 kts 302°
2026-04-29 11:59 17.57412 60.27533 33746 ft 521 kts 302°
2026-04-29 12:00 17.61067 60.21311 33743 ft 521 kts 302°
2026-04-29 12:00 17.65009 60.14566 33743 ft 521 kts 302°
2026-04-29 12:01 17.68790 60.08089 33744 ft 521 kts 302°
2026-04-29 12:01 17.72601 60.01561 33744 ft 521 kts 302°
2026-04-29 12:02 17.76477 59.95125 33742 ft 521 kts 304°
2026-04-29 12:02 17.80600 59.88796 33741 ft 521 kts 304°
2026-04-29 12:03 17.84695 59.82455 33742 ft 521 kts 304°
2026-04-29 12:03 17.88676 59.76224 33742 ft 521 kts 304°
2026-04-29 12:04 17.92808 59.69734 33741 ft 521 kts 304°
2026-04-29 12:04 17.96853 59.63415 33739 ft 521 kts 304°
2026-04-29 12:05 18.00945 59.56994 33740 ft 521 kts 304°
2026-04-29 12:05 18.04590 59.51260 33740 ft 521 kts 304°
2026-04-29 12:06 18.08667 59.44838 33739 ft 521 kts 304°
2026-04-29 12:06 18.12693 59.38491 33738 ft 521 kts 304°
2026-04-29 12:07 18.16792 59.32021 33737 ft 521 kts 304°
2026-04-29 12:07 18.20785 59.25711 33737 ft 521 kts 304°
2026-04-29 12:08 18.24799 59.19364 33737 ft 521 kts 304°
2026-04-29 12:08 18.28833 59.12977 33738 ft 521 kts 304°
2026-04-29 12:09 18.32823 59.06655 33736 ft 521 kts 304°
2026-04-29 12:09 18.36911 59.00170 33736 ft 521 kts 304°
2026-04-29 12:10 18.40822 58.93959 33735 ft 521 kts 304°
2026-04-29 12:10 18.44830 58.87589 33736 ft 521 kts 304°
2026-04-29 12:11 18.48773 58.81317 33734 ft 521 kts 304°
2026-04-29 12:11 18.52826 58.74862 33733 ft 521 kts 304°
2026-04-29 12:12 18.56808 58.68537 33734 ft 521 kts 304°
2026-04-29 12:12 18.60806 58.62156 33734 ft 521 kts 303°
2026-04-29 12:13 18.64795 58.55772 33733 ft 521 kts 303°
2026-04-29 12:13 18.68781 58.49390 33732 ft 521 kts 303°
2026-04-29 12:14 18.72940 58.43147 33734 ft 520 kts 309°
2026-04-29 12:14 18.76887 58.38317 33733 ft 520 kts 313°
2026-04-29 12:15 18.82668 58.31825 33731 ft 520 kts 314°
2026-04-29 12:15 18.87592 58.26214 33731 ft 520 kts 313°
2026-04-29 12:16 18.91688 58.21483 33732 ft 520 kts 313°
2026-04-29 12:16 18.96566 58.15834 33732 ft 520 kts 313°
2026-04-29 12:17 19.01518 58.10109 33730 ft 520 kts 313°
2026-04-29 12:17 19.06389 58.04455 33730 ft 520 kts 313°
2026-04-29 12:18 19.11236 57.98819 33731 ft 520 kts 313°
2026-04-29 12:18 19.16131 57.93120 33732 ft 520 kts 313°
2026-04-29 12:19 19.21001 57.87443 33731 ft 520 kts 313°
2026-04-29 12:19 19.25929 57.81693 33730 ft 520 kts 313°
2026-04-29 12:20 19.30762 57.76050 33731 ft 520 kts 313°
2026-04-29 12:20 19.35759 57.70208 33730 ft 520 kts 313°
2026-04-29 12:21 19.40547 57.64606 33731 ft 520 kts 313°
2026-04-29 12:21 19.45398 57.58925 33731 ft 520 kts 313°
2026-04-29 12:22 19.50261 57.53224 33731 ft 520 kts 313°
2026-04-29 12:22 19.55118 57.47525 33731 ft 520 kts 312°
2026-04-29 12:23 19.60006 57.41783 33732 ft 520 kts 312°
2026-04-29 12:23 19.64865 57.36069 33733 ft 520 kts 312°
2026-04-29 12:24 19.69748 57.30323 33735 ft 520 kts 312°
2026-04-29 12:24 19.72184 57.27454 33852 ft 521 kts 312°
2026-04-29 12:24 19.74607 57.24599 34139 ft 519 kts 312°
2026-04-29 12:25 19.77059 57.21708 34384 ft 518 kts 312°
2026-04-29 12:25 19.79608 57.18702 34589 ft 518 kts 312°
2026-04-29 12:25 19.84430 57.13009 35005 ft 517 kts 312°
2026-04-29 12:26 19.86835 57.10168 35212 ft 517 kts 312°
2026-04-29 12:26 19.89237 57.07330 35418 ft 516 kts 312°
2026-04-29 12:26 19.91673 57.04449 35625 ft 516 kts 312°
2026-04-29 12:26 19.94046 57.01641 35735 ft 516 kts 312°
2026-04-29 12:27 19.96444 56.98805 35737 ft 516 kts 313°
2026-04-29 12:27 20.00446 56.94083 35738 ft 516 kts 313°
2026-04-29 12:28 20.05269 56.88361 35740 ft 516 kts 312°
2026-04-29 12:28 20.10063 56.82662 35741 ft 516 kts 312°
2026-04-29 12:29 20.14850 56.76971 35741 ft 516 kts 312°
2026-04-29 12:29 20.19609 56.71313 35740 ft 516 kts 313°
2026-04-29 12:30 20.24431 56.65578 35746 ft 516 kts 312°
2026-04-29 12:30 20.29231 56.59841 35746 ft 516 kts 312°
2026-04-29 12:31 20.33979 56.54162 35745 ft 516 kts 312°
2026-04-29 12:31 20.38787 56.48410 35745 ft 516 kts 312°
2026-04-29 12:32 20.43576 56.42685 35751 ft 518 kts 312°
2026-04-29 12:32 20.48434 56.36852 35750 ft 518 kts 312°
2026-04-29 12:33 20.53216 56.31104 35750 ft 518 kts 312°
2026-04-29 12:33 20.57934 56.25430 35750 ft 518 kts 312°
2026-04-29 12:34 20.63015 56.19313 35755 ft 518 kts 312°
2026-04-29 12:34 20.67811 56.13555 35754 ft 518 kts 312°
2026-04-29 12:35 20.72598 56.07789 35755 ft 518 kts 311°
2026-04-29 12:35 20.77382 56.02005 35755 ft 518 kts 311°
2026-04-29 12:36 20.82155 55.96229 35759 ft 518 kts 311°
2026-04-29 12:36 20.86961 55.90412 35758 ft 518 kts 311°
2026-04-29 12:37 20.91738 55.84630 35758 ft 518 kts 311°
2026-04-29 12:37 20.95736 55.79784 35760 ft 518 kts 311°
2026-04-29 12:38 21.01288 55.73046 35762 ft 518 kts 311°
2026-04-29 12:38 21.06066 55.67246 35762 ft 518 kts 312°
2026-04-29 12:39 21.10178 55.62289 35763 ft 518 kts 311°
2026-04-29 12:39 21.14949 55.56486 35763 ft 518 kts 311°
2026-04-29 12:40 21.19714 55.50676 35764 ft 519 kts 311°
2026-04-29 12:40 21.24448 55.44830 35761 ft 518 kts 308°
2026-04-29 12:41 21.27972 55.38108 35764 ft 519 kts 289°
2026-04-29 12:41 21.29467 55.30486 35767 ft 519 kts 277°
2026-04-29 12:42 21.30419 55.22811 35770 ft 519 kts 278°
2026-04-29 12:42 21.31594 55.15033 35770 ft 519 kts 279°
2026-04-29 12:43 21.32890 55.07446 35770 ft 519 kts 280°
2026-04-29 12:43 21.34233 54.99885 35773 ft 519 kts 280°
2026-04-29 12:44 21.35621 54.92068 35773 ft 519 kts 280°
2026-04-29 12:44 21.36969 54.84404 35773 ft 519 kts 280°
2026-04-29 12:45 21.38314 54.76719 35776 ft 519 kts 280°
2026-04-29 12:45 21.39644 54.69091 35776 ft 519 kts 280°
2026-04-29 12:46 21.40987 54.61365 35777 ft 519 kts 280°
2026-04-29 12:46 21.42318 54.53684 35779 ft 519 kts 280°
2026-04-29 12:47 21.43635 54.46064 35779 ft 519 kts 280°
2026-04-29 12:47 21.44949 54.38439 35780 ft 519 kts 280°
2026-04-29 12:48 21.46259 54.30817 35780 ft 519 kts 280°
2026-04-29 12:48 21.47574 54.23139 35782 ft 519 kts 280°
2026-04-29 12:49 21.48747 54.16279 35781 ft 519 kts 280°
2026-04-29 12:49 21.50057 54.08592 35783 ft 519 kts 279°
2026-04-29 12:50 21.51364 54.00901 35784 ft 519 kts 279°
2026-04-29 12:50 21.52684 53.93109 35784 ft 519 kts 279°
2026-04-29 12:51 21.54017 53.85218 35784 ft 519 kts 279°
2026-04-29 12:51 21.55304 53.77582 35785 ft 519 kts 279°
2026-04-29 12:52 21.56587 53.69941 35785 ft 519 kts 279°
2026-04-29 12:52 21.57868 53.62293 35786 ft 519 kts 279°
2026-04-29 12:53 21.58930 53.55940 35786 ft 519 kts 279°
2026-04-29 12:53 21.60432 53.46918 35787 ft 519 kts 279°
2026-04-29 12:54 21.61699 53.39289 35787 ft 519 kts 279°
2026-04-29 12:54 21.62767 53.32837 35787 ft 518 kts 279°
2026-04-29 12:55 21.64020 53.25251 35787 ft 518 kts 279°
2026-04-29 12:55 21.65271 53.17656 35788 ft 518 kts 279°
2026-04-29 12:56 21.66550 53.09861 35788 ft 518 kts 279°
2026-04-29 12:56 21.67807 53.02181 35788 ft 518 kts 279°
2026-04-29 12:57 21.69051 52.94558 35789 ft 518 kts 279°
2026-04-29 12:57 21.70294 52.86915 35790 ft 518 kts 279°
2026-04-29 12:58 21.71533 52.79283 35789 ft 518 kts 279°
2026-04-29 12:58 21.72771 52.71627 35789 ft 518 kts 279°
2026-04-29 12:59 21.73995 52.64035 35790 ft 518 kts 279°
2026-04-29 12:59 21.75231 52.56346 35790 ft 518 kts 279°
2026-04-29 13:00 21.76454 52.48712 35790 ft 517 kts 279°
2026-04-29 13:00 21.77691 52.40971 35790 ft 517 kts 278°
2026-04-29 13:01 21.78906 52.33345 35791 ft 517 kts 278°
2026-04-29 13:01 21.80141 52.25567 35791 ft 517 kts 278°
2026-04-29 13:02 21.81351 52.17923 35795 ft 518 kts 279°
2026-04-29 13:02 21.82550 52.10324 35796 ft 519 kts 278°
2026-04-29 13:03 21.83618 52.03536 35800 ft 518 kts 278°
2026-04-29 13:03 21.84860 51.95624 35823 ft 519 kts 279°
2026-04-29 13:04 21.86061 51.87942 35823 ft 520 kts 279°
2026-04-29 13:04 21.87259 51.80257 35824 ft 520 kts 278°
2026-04-29 13:05 21.88451 51.72593 35820 ft 517 kts 278°
2026-04-29 13:05 21.89627 51.64995 35823 ft 518 kts 278°
2026-04-29 13:06 21.90818 51.57284 35824 ft 520 kts 278°
2026-04-29 13:06 21.92019 51.49493 35813 ft 520 kts 278°
2026-04-29 13:07 21.93197 51.41806 35812 ft 520 kts 278°
2026-04-29 13:07 21.94376 51.34104 35814 ft 521 kts 278°
2026-04-29 13:08 21.95551 51.26404 35808 ft 520 kts 278°
2026-04-29 13:08 21.96749 51.18514 35808 ft 518 kts 278°
2026-04-29 13:09 21.97886 51.11008 35808 ft 518 kts 278°
2026-04-29 13:09 21.99051 51.03294 35809 ft 519 kts 278°
2026-04-29 13:10 22.00215 50.95556 35808 ft 519 kts 277°
2026-04-29 13:10 22.01368 50.87874 35809 ft 518 kts 278°
2026-04-29 13:11 22.02525 50.80132 35815 ft 518 kts 277°
2026-04-29 13:11 22.03666 50.72481 35816 ft 517 kts 277°
2026-04-29 13:12 22.04773 50.65029 35815 ft 517 kts 277°
2026-04-29 13:12 22.05968 50.56958 35815 ft 517 kts 277°
2026-04-29 13:13 22.07092 50.49340 35816 ft 518 kts 277°
2026-04-29 13:13 22.08227 50.41617 35815 ft 517 kts 277°
2026-04-29 13:14 22.09167 50.35208 35815 ft 517 kts 277°
2026-04-29 13:14 22.10462 50.26346 35815 ft 518 kts 277°
2026-04-29 13:15 22.11409 50.19844 35814 ft 518 kts 277°
2026-04-29 13:15 22.12531 50.12113 35815 ft 518 kts 277°
2026-04-29 13:16 22.13683 50.04153 35815 ft 518 kts 277°
2026-04-29 13:16 22.14800 49.96404 35814 ft 519 kts 277°
2026-04-29 13:17 22.15907 49.88701 35813 ft 519 kts 277°
2026-04-29 13:17 22.17048 49.80734 35814 ft 520 kts 277°
2026-04-29 13:18 22.18150 49.73005 35813 ft 520 kts 277°
2026-04-29 13:18 22.19233 49.65386 35813 ft 520 kts 277°
2026-04-29 13:19 22.20239 49.58290 35814 ft 521 kts 277°
2026-04-29 13:19 22.21333 49.50550 35813 ft 521 kts 277°
2026-04-29 13:20 22.22430 49.42752 35817 ft 521 kts 277°
2026-04-29 13:20 22.23525 49.34948 35818 ft 522 kts 277°
2026-04-29 13:21 22.24615 49.27148 35817 ft 522 kts 277°
2026-04-29 13:21 22.25709 49.19289 35817 ft 521 kts 277°
2026-04-29 13:22 22.26792 49.11484 35818 ft 522 kts 277°
2026-04-29 13:22 22.27874 49.03661 35818 ft 523 kts 277°
2026-04-29 13:23 22.28843 48.96628 35817 ft 522 kts 277°
2026-04-29 13:23 22.29944 48.88605 35817 ft 523 kts 277°
2026-04-29 13:24 22.31002 48.80874 35816 ft 523 kts 277°
2026-04-29 13:24 22.32103 48.72793 35815 ft 523 kts 277°
2026-04-29 13:25 22.33161 48.65029 35832 ft 519 kts 276°
2026-04-29 13:25 22.34729 48.53390 35815 ft 522 kts 277°
2026-04-29 13:26 22.35849 48.45098 35833 ft 520 kts 276°
2026-04-29 13:26 22.36869 48.37448 35814 ft 515 kts 276°
2026-04-29 13:27 22.37899 48.29739 35814 ft 521 kts 277°
2026-04-29 13:27 22.38940 48.21938 35834 ft 523 kts 276°
2026-04-29 13:28 22.39790 48.15511 35827 ft 519 kts 276°
2026-04-29 13:28 22.40840 48.07545 35812 ft 523 kts 277°
2026-04-29 13:29 22.41859 47.99837 35835 ft 517 kts 276°
2026-04-29 13:29 22.42871 47.92102 35831 ft 515 kts 276°
2026-04-29 13:30 22.43885 47.84320 35811 ft 521 kts 277°
2026-04-29 13:30 22.44901 47.76559 35836 ft 519 kts 276°
2026-04-29 13:31 22.45901 47.68819 35838 ft 521 kts 276°
2026-04-29 13:31 22.46914 47.61063 35810 ft 525 kts 277°
2026-04-29 13:32 22.47929 47.53249 35850 ft 522 kts 276°
2026-04-29 13:32 22.48918 47.45449 35850 ft 525 kts 276°
2026-04-29 13:33 22.49914 47.37580 35809 ft 526 kts 277°
2026-04-29 13:33 22.51138 47.29965 35969 ft 496 kts 282°
2026-04-29 13:34 22.53342 47.22742 35925 ft 485 kts 286°
2026-04-29 13:34 22.55761 47.15882 35893 ft 491 kts 287°
2026-04-29 13:35 22.58208 47.08913 35937 ft 496 kts 287°
2026-04-29 13:35 22.60629 47.01965 35920 ft 489 kts 286°
2026-04-29 13:36 22.63082 46.94908 35882 ft 492 kts 286°
2026-04-29 13:36 22.65541 46.87909 35876 ft 499 kts 286°
2026-04-29 13:37 22.67953 46.80981 35900 ft 489 kts 287°
2026-04-29 13:37 22.70040 46.74967 35904 ft 482 kts 286°
2026-04-29 13:38 22.72403 46.68190 35898 ft 478 kts 286°
2026-04-29 13:38 22.74644 46.61714 35910 ft 475 kts 286°
2026-04-29 13:39 22.77035 46.54768 35905 ft 473 kts 286°
2026-04-29 13:39 22.79340 46.48057 35899 ft 478 kts 286°
2026-04-29 13:40 22.81635 46.41084 35900 ft 478 kts 281°
2026-04-29 13:40 22.82722 46.34074 35925 ft 470 kts 272°
2026-04-29 13:41 22.83264 46.26936 35924 ft 466 kts 270°
2026-04-29 13:41 22.83728 46.19937 35922 ft 465 kts 270°
2026-04-29 13:42 22.84207 46.13066 35933 ft 463 kts 271°
2026-04-29 13:42 22.84712 46.05932 35934 ft 459 kts 271°
2026-04-29 13:43 22.85218 45.99023 35929 ft 461 kts 271°
2026-04-29 13:43 22.85734 45.92093 35935 ft 460 kts 271°
2026-04-29 13:44 22.86231 45.85197 35935 ft 459 kts 271°
2026-04-29 13:44 22.86723 45.78285 35922 ft 460 kts 271°
2026-04-29 13:45 22.87215 45.71311 35921 ft 463 kts 271°
2026-04-29 13:45 22.87712 45.64224 35934 ft 460 kts 271°
2026-04-29 13:46 22.88183 45.57454 35931 ft 458 kts 271°
2026-04-29 13:46 22.88664 45.50504 35922 ft 462 kts 271°
2026-04-29 13:47 22.89144 45.43534 35929 ft 463 kts 271°
2026-04-29 13:47 22.89639 45.36577 35931 ft 462 kts 271°
2026-04-29 13:48 22.90109 45.29600 35919 ft 464 kts 270°
2026-04-29 13:48 22.90577 45.22546 35912 ft 466 kts 270°
2026-04-29 13:49 22.90963 45.16712 35911 ft 466 kts 270°
2026-04-29 13:49 22.91434 45.09596 35904 ft 467 kts 270°
2026-04-29 13:50 22.91896 45.02554 35908 ft 468 kts 270°
2026-04-29 13:50 22.92386 44.95416 35935 ft 466 kts 270°
2026-04-29 13:51 22.92839 44.88418 35938 ft 464 kts 270°
2026-04-29 13:51 22.93282 44.81457 35939 ft 464 kts 270°
2026-04-29 13:52 22.93736 44.74295 35939 ft 464 kts 270°
2026-04-29 13:52 22.94358 44.67320 35939 ft 467 kts 276°
2026-04-29 13:53 22.96015 44.60417 35940 ft 472 kts 282°
2026-04-29 13:53 22.98159 44.53708 35940 ft 474 kts 284°
2026-04-29 13:54 23.00365 44.46896 35939 ft 475 kts 283°
2026-04-29 13:54 23.02466 44.40141 35939 ft 475 kts 283°
2026-04-29 13:55 23.04556 44.33336 35939 ft 474 kts 283°
2026-04-29 13:55 23.06672 44.26504 35939 ft 474 kts 283°
2026-04-29 13:56 23.08769 44.19699 35938 ft 475 kts 283°
2026-04-29 13:56 23.10898 44.12747 35938 ft 475 kts 283°
2026-04-29 13:57 23.12948 44.06033 35939 ft 474 kts 283°
2026-04-29 13:57 23.14718 44.00228 35938 ft 474 kts 283°
2026-04-29 13:58 23.17141 43.92262 35938 ft 475 kts 283°
2026-04-29 13:58 23.19199 43.85544 35938 ft 474 kts 283°
2026-04-29 13:59 23.21302 43.78608 35949 ft 471 kts 283°
2026-04-29 13:59 23.23336 43.71861 35951 ft 467 kts 283°
2026-04-29 14:00 23.25156 43.65816 35949 ft 468 kts 283°
2026-04-29 14:00 23.27270 43.58795 35951 ft 470 kts 283°
2026-04-29 14:01 23.29300 43.52041 35954 ft 468 kts 283°
2026-04-29 14:01 23.31308 43.45385 35955 ft 467 kts 283°
2026-04-29 14:02 23.33392 43.38494 35955 ft 467 kts 283°
2026-04-29 14:02 23.35403 43.31763 35957 ft 467 kts 283°
2026-04-29 14:03 23.37422 43.24983 35957 ft 468 kts 283°
2026-04-29 14:03 23.39434 43.18227 35958 ft 469 kts 283°
2026-04-29 14:04 23.41430 43.11515 35959 ft 467 kts 283°
2026-04-29 14:04 23.43443 43.04790 35956 ft 465 kts 283°
2026-04-29 14:05 23.45436 42.98077 35962 ft 465 kts 283°
2026-04-29 14:05 23.47429 42.91311 35962 ft 467 kts 283°
2026-04-29 14:06 23.49405 42.84593 35958 ft 467 kts 283°
2026-04-29 14:06 23.51388 42.77854 35957 ft 463 kts 283°
2026-04-29 14:07 23.53351 42.71180 35966 ft 463 kts 283°
2026-04-29 14:07 23.55116 42.65174 35966 ft 465 kts 283°
2026-04-29 14:08 23.57065 42.58602 35956 ft 466 kts 283°
2026-04-29 14:08 23.59047 42.51877 35961 ft 465 kts 283°
2026-04-29 14:09 23.61039 42.45052 35963 ft 466 kts 283°
2026-04-29 14:09 23.62995 42.38338 35958 ft 466 kts 283°
2026-04-29 14:10 23.64969 42.31559 35957 ft 464 kts 283°
2026-04-29 14:10 23.66936 42.24827 35964 ft 465 kts 283°
2026-04-29 14:11 23.68959 42.17865 35965 ft 467 kts 283°
2026-04-29 14:11 23.70919 42.11066 35964 ft 466 kts 283°
2026-04-29 14:12 23.72865 42.04309 35966 ft 466 kts 283°
2026-04-29 14:12 23.74834 41.97472 35964 ft 466 kts 283°
2026-04-29 14:13 23.76792 41.90731 35960 ft 465 kts 283°
2026-04-29 14:13 23.78748 41.83938 35960 ft 465 kts 283°
2026-04-29 14:14 23.80700 41.77150 35962 ft 465 kts 283°
2026-04-29 14:14 23.82323 41.71529 35963 ft 465 kts 283°
2026-04-29 14:15 23.84281 41.64688 35959 ft 465 kts 283°
2026-04-29 14:15 23.86223 41.57893 35960 ft 465 kts 283°
2026-04-29 14:16 23.88151 41.51147 35961 ft 465 kts 283°
2026-04-29 14:16 23.90102 41.44260 35950 ft 465 kts 283°
2026-04-29 14:17 23.92017 41.37494 35945 ft 464 kts 282°
2026-04-29 14:17 23.93899 41.30844 35942 ft 464 kts 282°
2026-04-29 14:18 23.95882 41.23921 35935 ft 464 kts 282°
2026-04-29 14:18 23.97786 41.17189 35919 ft 461 kts 282°
2026-04-29 14:19 23.99687 41.10430 35884 ft 462 kts 282°
2026-04-29 14:19 24.00636 41.07049 35370 ft 467 kts 282°
2026-04-29 14:19 24.01583 41.03673 34838 ft 462 kts 282°
2026-04-29 14:20 24.02525 41.00319 34320 ft 457 kts 282°
2026-04-29 14:20 24.03464 40.96976 33893 ft 450 kts 282°
2026-04-29 14:20 24.04379 40.93710 33416 ft 445 kts 283°
2026-04-29 14:20 24.05280 40.90495 32975 ft 440 kts 283°
2026-04-29 14:21 24.06173 40.87307 32512 ft 435 kts 283°
2026-04-29 14:21 24.07012 40.84321 32109 ft 430 kts 283°
2026-04-29 14:21 24.07950 40.81027 31656 ft 424 kts 283°
2026-04-29 14:21 24.08783 40.78072 31292 ft 418 kts 283°
2026-04-29 14:22 24.09659 40.74937 30848 ft 411 kts 283°
2026-04-29 14:22 24.10471 40.72021 30196 ft 390 kts 282°
2026-04-29 14:22 24.11249 40.69220 29153 ft 379 kts 282°
2026-04-29 14:22 24.12011 40.66477 27954 ft 373 kts 282°
2026-04-29 14:23 24.12760 40.63778 26777 ft 367 kts 282°
2026-04-29 14:23 24.13492 40.61137 25911 ft 356 kts 281°
2026-04-29 14:23 24.14220 40.58515 25398 ft 354 kts 281°
2026-04-29 14:23 24.14960 40.55844 25198 ft 350 kts 281°
2026-04-29 14:24 24.15481 40.53969 24899 ft 341 kts 281°
2026-04-29 14:24 24.16051 40.51507 24085 ft 327 kts 276°
2026-04-29 14:24 24.16370 40.49057 22935 ft 323 kts 274°
2026-04-29 14:24 24.16580 40.46589 21527 ft 327 kts 274°
2026-04-29 14:25 24.16746 40.44091 20097 ft 331 kts 275°
2026-04-29 14:25 24.16911 40.41568 18766 ft 332 kts 276°
2026-04-29 14:25 24.17091 40.38985 17588 ft 328 kts 276°
2026-04-29 14:25 24.17263 40.36538 16445 ft 325 kts 275°
2026-04-29 14:26 24.17441 40.34014 15389 ft 339 kts 275°
2026-04-29 14:26 24.17621 40.31469 14739 ft 329 kts 274°
2026-04-29 14:26 24.17801 40.28925 14182 ft 331 kts 274°
2026-04-29 14:26 24.17981 40.26382 13736 ft 329 kts 274°
2026-04-29 14:27 24.18164 40.23888 13297 ft 328 kts 274°
2026-04-29 14:27 24.18360 40.21408 12861 ft 326 kts 274°
2026-04-29 14:27 24.18555 40.18926 12497 ft 327 kts 274°
2026-04-29 14:28 24.18937 40.13934 11586 ft 326 kts 273°
2026-04-29 14:28 24.19101 40.11456 11176 ft 324 kts 272°
2026-04-29 14:28 24.19265 40.09001 10783 ft 322 kts 272°
2026-04-29 14:28 24.19431 40.06562 10406 ft 319 kts 272°
2026-04-29 14:29 24.19601 40.04085 10300 ft 308 kts 272°
2026-04-29 14:29 24.19759 40.01798 10232 ft 296 kts 272°
2026-04-29 14:29 24.19913 39.99586 10157 ft 285 kts 272°
2026-04-29 14:29 24.20060 39.97462 10083 ft 274 kts 272°
2026-04-29 14:30 24.20202 39.95419 10012 ft 264 kts 272°
2026-04-29 14:30 24.20339 39.93444 9851 ft 257 kts 272°
2026-04-29 14:30 24.20474 39.91489 9546 ft 256 kts 272°
2026-04-29 14:30 24.20504 39.89548 9250 ft 254 kts 266°
2026-04-29 14:31 24.20342 39.87630 8963 ft 252 kts 261°
2026-04-29 14:31 24.20051 39.85756 8678 ft 250 kts 258°
2026-04-29 14:31 24.19697 39.83892 8481 ft 241 kts 258°
2026-04-29 14:31 24.19370 39.82142 8099 ft 229 kts 258°
2026-04-29 14:32 24.19170 39.80441 7752 ft 223 kts 271°
2026-04-29 14:32 24.19612 39.78854 7653 ft 222 kts 300°
2026-04-29 14:32 24.20787 39.77798 7602 ft 222 kts 333°
2026-04-29 14:32 24.22333 39.77459 7580 ft 220 kts 347°
2026-04-29 14:33 24.23817 39.77278 7549 ft 215 kts 348°
2026-04-29 14:33 24.25308 39.77067 7506 ft 211 kts 347°
2026-04-29 14:33 24.26747 39.76820 7475 ft 209 kts 346°
2026-04-29 14:33 24.28259 39.76527 7244 ft 216 kts 345°
2026-04-29 14:34 24.29767 39.76230 6829 ft 219 kts 345°
2026-04-29 14:34 24.31215 39.75931 6565 ft 203 kts 345°
2026-04-29 14:34 24.32561 39.75649 6304 ft 193 kts 344°
2026-04-29 14:34 24.33866 39.75374 6059 ft 188 kts 344°
2026-04-29 14:35 24.34722 39.75194 5918 ft 184 kts 344°
2026-04-29 14:35 24.36017 39.74920 5660 ft 179 kts 344°
2026-04-29 14:35 24.37225 39.74665 5423 ft 171 kts 344°
2026-04-29 14:35 24.38366 39.74423 5188 ft 164 kts 344°
2026-04-29 14:36 24.39481 39.74187 4969 ft 161 kts 344°
2026-04-29 14:36 24.40574 39.73956 4758 ft 159 kts 344°
2026-04-29 14:36 24.41736 39.73710 4536 ft 159 kts 344°
2026-04-29 14:36 24.42819 39.73480 4329 ft 158 kts 344°
2026-04-29 14:37 24.43901 39.73251 4117 ft 158 kts 344°
2026-04-29 14:37 24.44983 39.73022 3907 ft 158 kts 344°
2026-04-29 14:37 24.46041 39.72798 3701 ft 157 kts 344°
2026-04-29 14:37 24.47131 39.72567 3489 ft 156 kts 344°
2026-04-29 14:38 24.48255 39.72328 3270 ft 156 kts 343°
2026-04-29 14:38 24.49310 39.72105 3064 ft 155 kts 343°
2026-04-29 14:38 24.50383 39.71877 2856 ft 155 kts 344°
2026-04-29 14:38 24.51437 39.71653 2651 ft 154 kts 344°
2026-04-29 14:39 24.52506 39.71427 2436 ft 153 kts 347°
2026-04-29 14:39 24.53633 39.71191 2228 ft 159 kts 346°
2026-04-29 14:39 24.54676 39.70967 2166 ft 130 kts 346°
2026-04-29 14:39 24.55391 39.70815 2165 ft 79 kts 347°
2026-04-29 14:40 24.55684 39.70751 2165 ft 56 kts 349°
2026-04-29 14:40 24.56077 39.70676 2165 ft 25 kts
2026-04-29 14:40 24.56169 39.70703 2165 ft 12 kts 17°
2026-04-29 14:40 24.56245 39.70733 2165 ft 11 kts 30°
2026-04-29 14:41 24.56277 39.70772 2165 ft 6 kts 71°
2026-04-29 14:41 24.56261 39.70807 2165 ft 6 kts 147°
2026-04-29 14:41 24.56226 39.70823 2165 ft 5 kts 164°
2026-04-29 14:41 24.56191 39.70832 2165 ft 5 kts 168°
2026-04-29 14:42 24.56141 39.70843 2165 ft 10 kts 169°
2026-04-29 14:42 24.56050 39.70861 2165 ft 13 kts 169°
2026-04-29 14:42 24.56005 39.70888 2165 ft 7 kts 104°
2026-04-29 14:42 24.56011 39.70972 2165 ft 15 kts 79°
2026-04-29 14:43 24.56011 39.71055 2165 ft 9 kts 138°
2026-04-29 14:43 24.55934 39.71080 2165 ft 15 kts 169°
2026-04-29 14:43 24.55832 39.71102 2165 ft 11 kts 168°
2026-04-29 14:43 24.55762 39.71119 2165 ft 8 kts 160°
2026-04-29 14:44 24.55748 39.71150 2165 ft 6 kts 79°
2026-04-29 14:44 24.55757 39.71197 2165 ft 6 kts 78°
2026-04-29 14:44 24.55759 39.71206 2165 ft 0 kts 78°